TimeCST,TemperatureF,Dew PointF,Humidity,Sea Level PressureIn,VisibilityMPH,Wind Direction,Wind SpeedMPH,Gust SpeedMPH,PrecipitationIn,Events,Conditions,WindDirDegrees,DateUTC
12:53 AM,18.0,16.0,92,30.19,10.0,North,12.7,-,N/A,,Clear,350,2013-02-28 06:53:00
1:53 AM,17.1,15.1,92,30.21,10.0,NNW,11.5,-,N/A,,Clear,340,2013-02-28 07:53:00
2:53 AM,17.1,15.1,92,30.21,10.0,NNW,11.5,-,N/A,,Clear,330,2013-02-28 08:53:00
3:18 AM,17.6,15.8,93,30.13,10.0,NNW,10.4,-,N/A,,Scattered Clouds,330,2013-02-28 09:18:00
3:27 AM,17.6,15.8,93,30.12,10.0,NNW,11.5,-,N/A,,Mostly Cloudy,340,2013-02-28 09:27:00
3:53 AM,17.1,15.1,92,30.22,10.0,NNW,11.5,-,N/A,,Overcast,340,2013-02-28 09:53:00
4:53 AM,17.1,16.0,96,30.23,5.0,NNW,12.7,-,N/A,,Overcast,340,2013-02-28 10:53:00
5:26 AM,17.6,15.8,93,30.15,10.0,NNW,10.4,-,N/A,,Overcast,330,2013-02-28 11:26:00
6:53 AM,19.9,17.1,89,30.24,10.0,NNW,12.7,-,N/A,,Overcast,340,2013-02-28 12:53:00
8:53 AM,19.9,18.0,92,30.26,10.0,NNW,12.7,-,N/A,,Overcast,330,2013-02-28 14:53:00
9:17 AM,19.4,17.6,93,30.18,10.0,NNW,13.8,-,N/A,,Overcast,330,2013-02-28 15:17:00
9:53 AM,21.0,18.0,88,30.27,10.0,NNW,13.8,-,N/A,,Overcast,340,2013-02-28 15:53:00
10:53 AM,21.0,18.0,88,30.29,10.0,NNW,12.7,-,N/A,,Overcast,330,2013-02-28 16:53:00
11:53 AM,21.9,18.0,85,30.28,10.0,North,15.0,-,N/A,,Overcast,360,2013-02-28 17:53:00
12:04 PM,21.2,17.6,86,30.20,10.0,NW,10.4,-,N/A,,Overcast,320,2013-02-28 18:04:00
12:53 PM,21.0,18.0,88,30.28,10.0,NW,13.8,-,N/A,,Overcast,320,2013-02-28 18:53:00
1:53 PM,21.9,18.0,85,30.27,10.0,NNW,11.5,-,N/A,,Overcast,330,2013-02-28 19:53:00
2:26 PM,21.2,17.6,86,30.18,10.0,NNW,15.0,-,N/A,,Overcast,340,2013-02-28 20:26:00
2:53 PM,21.0,18.0,88,30.27,10.0,North,15.0,-,N/A,,Overcast,350,2013-02-28 20:53:00
3:12 PM,21.2,17.6,86,30.18,10.0,North,15.0,-,N/A,,Overcast,350,2013-02-28 21:12:00
3:49 PM,21.2,17.6,86,30.18,10.0,NNW,12.7,-,N/A,,Overcast,330,2013-02-28 21:49:00
3:53 PM,21.9,18.0,85,30.27,10.0,NNW,12.7,-,N/A,,Overcast,330,2013-02-28 21:53:00
4:42 PM,21.2,15.8,80,30.18,10.0,North,18.4,-,N/A,,Overcast,360,2013-02-28 22:42:00
4:53 PM,21.0,16.0,81,30.27,10.0,North,16.1,-,N/A,,Overcast,360,2013-02-28 22:53:00
6:53 PM,21.0,16.0,81,30.30,10.0,North,10.4,-,N/A,,Overcast,360,2013-03-01 00:53:00
7:53 PM,21.0,16.0,81,30.30,10.0,North,11.5,-,N/A,,Overcast,360,2013-03-01 01:53:00
8:53 PM,21.0,16.0,81,30.31,10.0,North,10.4,-,N/A,,Overcast,10,2013-03-01 02:53:00
9:53 PM,19.9,16.0,85,30.31,10.0,NNE,11.5,-,N/A,,Overcast,20,2013-03-01 03:53:00
10:53 PM,19.9,15.1,81,30.31,10.0,North,10.4,-,N/A,,Overcast,360,2013-03-01 04:53:00
11:53 PM,19.0,15.1,85,30.31,10.0,North,10.4,-,N/A,,Overcast,360,2013-03-01 05:53:00